Time,TemperatureF,DewpointF,PressureIn,WindDirection,WindDirectionDegrees,WindSpeedMPH,WindSpeedGustMPH,Humidity,HourlyPrecipIn,Conditions,Clouds,dailyrainin,SolarRadiationWatts/m^2,SoftwareType,DateUTC
2013-06-29 00:00:00,73.5,51.4,29.93,South,184,0.0,4.0,46,0.00,,,0.00,0001,Weather View 32 v70,2013-06-29 07:00:00,
2013-06-29 00:05:00,73.3,51.2,29.93,SW,229,0.0,4.0,46,0.00,,,0.00,0001,Weather View 32 v70,2013-06-29 07:05:00,
2013-06-29 00:10:00,73.2,51.1,29.93,South,184,0.0,3.0,46,0.00,,,0.00,0001,Weather View 32 v70,2013-06-29 07:10:00,
2013-06-29 00:15:00,73.2,51.1,29.93,West,274,0.0,3.0,46,0.00,,,0.00,0001,Weather View 32 v70,2013-06-29 07:15:00,
2013-06-29 00:25:00,72.8,50.8,29.93,West,274,0.0,3.0,46,0.00,,,0.00,0001,Weather View 32 v70,2013-06-29 07:25:00,
2013-06-29 00:30:00,72.4,50.4,29.93,WSW,252,1.0,3.0,46,0.00,,,0.00,0002,Weather View 32 v70,2013-06-29 07:30:00,
2013-06-29 00:35:00,72.2,50.2,29.93,SE,139,0.0,3.0,46,0.00,,,0.00,0001,Weather View 32 v70,2013-06-29 07:35:00,
2013-06-29 00:40:00,71.9,50.5,29.93,South,184,1.0,3.0,47,0.00,,,0.00,0001,Weather View 32 v70,2013-06-29 07:40:00,
2013-06-29 00:50:00,72.0,50.6,29.92,SSE,162,0.0,3.0,47,0.00,,,0.00,0001,Weather View 32 v70,2013-06-29 07:50:00,
2013-06-29 00:55:00,72.0,50.6,29.92,ESE,117,0.0,3.0,47,0.00,,,0.00,0001,Weather View 32 v70,2013-06-29 07:55:00,
2013-06-29 01:00:00,71.7,50.3,29.93,SW,229,1.0,4.0,47,0.00,,,0.00,0001,Weather View 32 v70,2013-06-29 08:00:00,
2013-06-29 01:05:00,71.8,50.4,29.93,SSW,207,0.0,4.0,47,0.00,,,0.00,0002,Weather View 32 v70,2013-06-29 08:05:00,
2013-06-29 01:10:00,71.7,50.3,29.93,West,274,0.0,4.0,47,0.00,,,0.00,0002,Weather View 32 v70,2013-06-29 08:10:00,
2013-06-29 01:20:00,71.4,50.1,29.93,South,184,0.0,4.0,47,0.00,,,0.00,0002,Weather View 32 v70,2013-06-29 08:20:00,
2013-06-29 01:25:00,71.2,49.9,29.93,West,274,0.0,4.0,47,0.00,,,0.00,0001,Weather View 32 v70,2013-06-29 08:25:00,
2013-06-29 01:30:00,71.1,49.8,29.93,SSW,207,0.0,4.0,47,0.00,,,0.00,0001,Weather View 32 v70,2013-06-29 08:30:00,
2013-06-29 01:35:00,70.8,50.1,29.93,West,274,0.0,4.0,48,0.00,,,0.00,0001,Weather View 32 v70,2013-06-29 08:35:00,
2013-06-29 01:40:00,70.5,49.8,29.93,SW,229,0.0,4.0,48,0.00,,,0.00,0001,Weather View 32 v70,2013-06-29 08:40:00,
2013-06-29 01:50:00,70.3,50.2,29.92,West,274,0.0,4.0,49,0.00,,,0.00,0001,Weather View 32 v70,2013-06-29 08:50:00,
2013-06-29 01:55:00,70.2,50.1,29.92,SSW,207,0.0,4.0,49,0.00,,,0.00,0001,Weather View 32 v70,2013-06-29 08:55:00,
2013-06-29 02:00:00,70.0,50.5,29.92,WNW,297,0.0,3.0,50,0.00,,,0.00,0001,Weather View 32 v70,2013-06-29 09:00:00,
2013-06-29 02:05:00,69.7,50.2,29.92,SW,229,1.0,2.0,50,0.00,,,0.00,0001,Weather View 32 v70,2013-06-29 09:05:00,
2013-06-29 02:15:00,69.4,49.9,29.92,SSW,207,0.0,2.0,50,0.00,,,0.00,0001,Weather View 32 v70,2013-06-29 09:15:00,
2013-06-29 02:20:00,69.1,49.6,29.92,SSW,207,0.0,2.0,50,0.00,,,0.00,0001,Weather View 32 v70,2013-06-29 09:20:00,
2013-06-29 02:25:00,69.0,49.5,29.92,South,184,0.0,2.0,50,0.00,,,0.00,0001,Weather View 32 v70,2013-06-29 09:25:00,
2013-06-29 02:30:00,68.9,50.0,29.92,South,184,0.0,2.0,51,0.00,,,0.00,0002,Weather View 32 v70,2013-06-29 09:30:00,
2013-06-29 02:40:00,68.3,49.9,29.92,NW,319,0.0,2.0,52,0.00,,,0.00,0001,Weather View 32 v70,2013-06-29 09:40:00,
2013-06-29 02:45:00,68.3,49.9,29.92,North,4,0.0,2.0,52,0.00,,,0.00,0001,Weather View 32 v70,2013-06-29 09:45:00,
2013-06-29 02:50:00,68.3,49.9,29.92,WNW,297,0.0,2.0,52,0.00,,,0.00,0001,Weather View 32 v70,2013-06-29 09:50:00,
2013-06-29 02:55:00,68.2,49.9,29.92,SW,229,0.0,2.0,52,0.00,,,0.00,0001,Weather View 32 v70,2013-06-29 09:55:00,
2013-06-29 03:05:00,67.9,49.6,29.91,NW,319,0.0,2.0,52,0.00,,,0.00,0002,Weather View 32 v70,2013-06-29 10:05:00,
2013-06-29 03:10:00,67.8,50.0,29.91,SSW,207,0.0,2.0,53,0.00,,,0.00,0002,Weather View 32 v70,2013-06-29 10:10:00,
2013-06-29 03:15:00,67.6,49.8,29.91,SSE,162,0.0,2.0,53,0.00,,,0.00,0001,Weather View 32 v70,2013-06-29 10:15:00,
2013-06-29 03:20:00,67.4,49.6,29.92,SSW,207,0.0,2.0,53,0.00,,,0.00,0001,Weather View 32 v70,2013-06-29 10:20:00,
2013-06-29 03:29:00,67.3,49.5,29.91,SW,229,0.0,2.0,53,0.00,,,0.00,0002,Weather View 32 v70,2013-06-29 10:29:00,
2013-06-29 03:35:00,67.3,49.5,29.92,SSW,207,0.0,2.0,53,0.00,,,0.00,0001,Weather View 32 v70,2013-06-29 10:35:00,
2013-06-29 03:40:00,67.5,49.7,29.92,South,184,0.0,2.0,53,0.00,,,0.00,0001,Weather View 32 v70,2013-06-29 10:40:00,
2013-06-29 03:45:00,67.5,49.7,29.92,SSW,207,0.0,2.0,53,0.00,,,0.00,0001,Weather View 32 v70,2013-06-29 10:45:00,
2013-06-29 03:50:00,67.4,49.6,29.92,SSW,207,0.0,2.0,53,0.00,,,0.00,0002,Weather View 32 v70,2013-06-29 10:50:00,
2013-06-29 04:00:00,67.5,50.2,29.92,SW,229,1.0,3.0,54,0.00,,,0.00,0001,Weather View 32 v70,2013-06-29 11:00:00,
2013-06-29 04:05:00,68.1,50.3,29.92,SW,229,3.0,3.0,53,0.00,,,0.00,0001,Weather View 32 v70,2013-06-29 11:05:00,
2013-06-29 04:10:00,68.2,50.4,29.91,NE,49,0.0,3.0,53,0.00,,,0.00,0002,Weather View 32 v70,2013-06-29 11:10:00,
2013-06-29 04:15:00,67.8,50.0,29.91,SSW,207,2.0,3.0,53,0.00,,,0.00,0001,Weather View 32 v70,2013-06-29 11:15:00,
2013-06-29 04:25:00,67.5,50.2,29.91,South,184,0.0,3.0,54,0.00,,,0.00,0001,Weather View 32 v70,2013-06-29 11:25:00,
2013-06-29 04:30:00,66.6,49.4,29.91,South,184,0.0,3.0,54,0.00,,,0.00,0001,Weather View 32 v70,2013-06-29 11:30:00,
2013-06-29 04:35:00,66.2,49.5,29.92,ESE,117,0.0,3.0,55,0.00,,,0.00,0002,Weather View 32 v70,2013-06-29 11:35:00,
2013-06-29 04:40:00,66.0,49.8,29.92,SE,139,0.0,3.0,56,0.00,,,0.00,0001,Weather View 32 v70,2013-06-29 11:40:00,
2013-06-29 04:50:00,65.4,50.2,29.92,SSE,162,0.0,3.0,58,0.00,,,0.00,0001,Weather View 32 v70,2013-06-29 11:50:00,
2013-06-29 04:55:00,65.1,49.9,29.92,West,274,0.0,3.0,58,0.00,,,0.00,0001,Weather View 32 v70,2013-06-29 11:55:00,
2013-06-29 05:00:00,64.9,49.7,29.92,ENE,72,0.0,3.0,58,0.00,,,0.00,0001,Weather View 32 v70,2013-06-29 12:00:00,
2013-06-29 05:05:00,64.9,49.7,29.92,SSW,207,0.0,3.0,58,0.00,,,0.00,0001,Weather View 32 v70,2013-06-29 12:05:00,
2013-06-29 05:10:00,64.8,49.6,29.92,ESE,117,0.0,3.0,58,0.00,,,0.00,0001,Weather View 32 v70,2013-06-29 12:10:00,
2013-06-29 05:20:00,65.1,50.4,29.92,West,274,0.0,2.0,59,0.00,,,0.00,0001,Weather View 32 v70,2013-06-29 12:20:00,
2013-06-29 05:25:00,65.3,50.6,29.92,WNW,297,0.0,2.0,59,0.00,,,0.00,0002,Weather View 32 v70,2013-06-29 12:25:00,
2013-06-29 05:30:00,65.5,50.3,29.92,SSW,207,0.0,1.0,58,0.00,,,0.00,0002,Weather View 32 v70,2013-06-29 12:30:00,
2013-06-29 05:35:00,65.6,49.9,29.92,SE,139,0.0,1.0,57,0.00,,,0.00,0002,Weather View 32 v70,2013-06-29 12:35:00,
2013-06-29 05:45:00,65.9,49.7,29.92,SSE,162,0.0,1.0,56,0.00,,,0.00,0004,Weather View 32 v70,2013-06-29 12:45:00,
2013-06-29 05:50:00,66.0,49.8,29.92,South,184,0.0,1.0,56,0.00,,,0.00,0006,Weather View 32 v70,2013-06-29 12:50:00,
2013-06-29 05:55:00,66.2,50.0,29.92,SSE,162,0.0,1.0,56,0.00,,,0.00,0008,Weather View 32 v70,2013-06-29 12:55:00,
2013-06-29 06:00:00,66.1,49.9,29.92,South,184,0.0,1.0,56,0.00,,,0.00,0039,Weather View 32 v70,2013-06-29 13:00:00,
2013-06-29 06:10:00,65.8,50.1,29.93,North,4,0.0,1.0,57,0.00,,,0.00,0071,Weather View 32 v70,2013-06-29 13:10:00,
2013-06-29 06:15:00,65.7,49.5,29.93,NNE,27,0.0,1.0,56,0.00,,,0.00,0085,Weather View 32 v70,2013-06-29 13:15:00,
2013-06-29 06:20:00,65.8,49.6,29.92,NNE,27,0.0,0.0,56,0.00,,,0.00,0099,Weather View 32 v70,2013-06-29 13:20:00,
2013-06-29 06:25:00,66.0,49.8,29.92,WNW,297,0.0,0.0,56,0.00,,,0.00,0113,Weather View 32 v70,2013-06-29 13:25:00,
2013-06-29 06:30:00,66.4,50.7,29.92,NW,319,0.0,0.0,57,0.00,,,0.00,0126,Weather View 32 v70,2013-06-29 13:30:00,
2013-06-29 06:40:00,67.3,51.0,29.92,WNW,297,2.0,3.0,56,0.00,,,0.00,0151,Weather View 32 v70,2013-06-29 13:40:00,
2013-06-29 06:45:00,68.0,51.2,29.92,NNW,342,1.0,3.0,55,0.00,,,0.00,0164,Weather View 32 v70,2013-06-29 13:45:00,
2013-06-29 06:50:00,68.5,51.2,29.92,North,4,2.0,3.0,54,0.00,,,0.00,0176,Weather View 32 v70,2013-06-29 13:50:00,
2013-06-29 06:55:00,69.1,51.7,29.92,NE,49,1.0,3.0,54,0.00,,,0.00,0188,Weather View 32 v70,2013-06-29 13:55:00,
2013-06-29 07:05:00,69.8,51.8,29.93,NE,49,1.0,3.0,53,0.00,,,0.00,0212,Weather View 32 v70,2013-06-29 14:05:00,
2013-06-29 07:10:00,70.5,52.0,29.92,SE,139,0.0,3.0,52,0.00,,,0.00,0224,Weather View 32 v70,2013-06-29 14:10:00,
2013-06-29 07:15:00,71.0,51.9,29.92,NW,319,1.0,3.0,51,0.00,,,0.00,0237,Weather View 32 v70,2013-06-29 14:15:00,
2013-06-29 07:20:00,71.1,51.5,29.92,NNW,342,1.0,3.0,50,0.00,,,0.00,0248,Weather View 32 v70,2013-06-29 14:20:00,
2013-06-29 07:30:00,72.1,52.4,29.92,ESE,117,1.0,3.0,50,0.00,,,0.00,0273,Weather View 32 v70,2013-06-29 14:30:00,
2013-06-29 07:35:00,72.5,52.2,29.92,East,94,2.0,3.0,49,0.00,,,0.00,0284,Weather View 32 v70,2013-06-29 14:35:00,
2013-06-29 07:40:00,72.7,52.4,29.92,ESE,117,0.0,3.0,49,0.00,,,0.00,0295,Weather View 32 v70,2013-06-29 14:40:00,
2013-06-29 07:45:00,72.9,52.0,29.92,East,94,1.0,3.0,48,0.00,,,0.00,0307,Weather View 32 v70,2013-06-29 14:45:00,
2013-06-29 07:55:00,74.4,52.8,29.92,SE,139,0.0,3.0,47,0.00,,,0.00,0331,Weather View 32 v70,2013-06-29 14:55:00,
2013-06-29 08:00:00,75.4,53.7,29.92,SE,139,0.0,3.0,47,0.00,,,0.00,0343,Weather View 32 v70,2013-06-29 15:00:00,
2013-06-29 08:05:00,76.2,53.8,29.92,ESE,117,1.0,3.0,46,0.00,,,0.00,0355,Weather View 32 v70,2013-06-29 15:05:00,
2013-06-29 08:15:00,77.4,53.7,29.92,ESE,117,0.0,3.0,44,0.00,,,0.00,0379,Weather View 32 v70,2013-06-29 15:15:00,
2013-06-29 08:20:00,77.9,53.5,29.92,ESE,117,1.0,3.0,43,0.00,,,0.00,0391,Weather View 32 v70,2013-06-29 15:20:00,
2013-06-29 08:25:00,77.6,52.6,29.92,NNW,342,2.0,3.0,42,0.00,,,0.00,0403,Weather View 32 v70,2013-06-29 15:25:00,
2013-06-29 08:30:00,77.2,52.3,29.92,NW,319,2.0,4.0,42,0.00,,,0.00,0414,Weather View 32 v70,2013-06-29 15:30:00,
2013-06-29 08:40:00,78.4,52.0,29.92,East,94,1.0,4.0,40,0.00,,,0.00,0439,Weather View 32 v70,2013-06-29 15:40:00,
2013-06-29 08:45:00,79.3,52.1,29.92,North,4,0.0,4.0,39,0.00,,,0.00,0452,Weather View 32 v70,2013-06-29 15:45:00,
2013-06-29 08:50:00,80.1,52.8,29.92,ENE,72,2.0,4.0,39,0.00,,,0.00,0465,Weather View 32 v70,2013-06-29 15:50:00,
2013-06-29 08:55:00,80.9,53.5,29.92,ESE,117,0.0,4.0,39,0.00,,,0.00,0478,Weather View 32 v70,2013-06-29 15:55:00,
2013-06-29 09:00:00,81.5,53.4,29.92,North,4,2.0,4.0,38,0.00,,,0.00,0491,Weather View 32 v70,2013-06-29 16:00:00,
2013-06-29 09:10:00,82.8,53.8,29.92,East,94,1.0,4.0,37,0.00,,,0.00,0516,Weather View 32 v70,2013-06-29 16:10:00,
2013-06-29 09:20:00,84.2,52.7,29.92,SE,139,0.0,4.0,34,0.00,,,0.00,0543,Weather View 32 v70,2013-06-29 16:20:00,
2013-06-29 09:25:00,85.1,52.7,29.92,SSE,162,2.0,4.0,33,0.00,,,0.00,0557,Weather View 32 v70,2013-06-29 16:25:00,
2013-06-29 09:30:00,85.3,52.8,29.92,NE,49,2.0,4.0,33,0.00,,,0.00,0570,Weather View 32 v70,2013-06-29 16:30:00,
2013-06-29 09:40:00,86.0,52.6,29.92,ESE,117,1.0,4.0,32,0.00,,,0.00,0595,Weather View 32 v70,2013-06-29 16:40:00,
2013-06-29 09:45:00,85.9,52.5,29.92,SE,139,3.0,6.0,32,0.00,,,0.00,0607,Weather View 32 v70,2013-06-29 16:45:00,
2013-06-29 09:50:00,86.2,51.9,29.91,SSE,162,3.0,6.0,31,0.00,,,0.00,0620,Weather View 32 v70,2013-06-29 16:50:00,
2013-06-29 09:55:00,86.2,51.9,29.92,SSE,162,2.0,6.0,31,0.00,,,0.00,0632,Weather View 32 v70,2013-06-29 16:55:00,
2013-06-29 10:00:00,87.2,52.8,29.91,ESE,117,3.0,6.0,31,0.00,,,0.00,0645,Weather View 32 v70,2013-06-29 17:00:00,
2013-06-29 10:10:00,88.5,53.9,29.91,East,94,1.0,6.0,31,0.00,,,0.00,0667,Weather View 32 v70,2013-06-29 17:10:00,
2013-06-29 10:15:00,88.6,52.2,29.91,NNW,342,4.0,6.0,29,0.00,,,0.00,0679,Weather View 32 v70,2013-06-29 17:15:00,
2013-06-29 10:20:00,89.2,52.7,29.91,NNW,342,1.0,6.0,29,0.00,,,0.00,0689,Weather View 32 v70,2013-06-29 17:20:00,
2013-06-29 10:25:00,89.9,53.3,29.91,NE,49,1.0,6.0,29,0.00,,,0.00,0700,Weather View 32 v70,2013-06-29 17:25:00,
2013-06-29 10:32:00,90.4,52.7,29.91,NNW,342,1.0,6.0,28,0.00,,,0.00,0710,Weather View 32 v70,2013-06-29 17:32:00,
2013-06-29 10:40:00,90.4,51.8,29.90,North,4,1.0,6.0,27,0.00,,,0.00,0727,Weather View 32 v70,2013-06-29 17:40:00,
2013-06-29 10:45:00,91.2,52.4,29.90,WNW,297,3.0,6.0,27,0.00,,,0.00,0736,Weather View 32 v70,2013-06-29 17:45:00,
2013-06-29 10:50:00,91.0,51.2,29.90,NNW,342,3.0,6.0,26,0.00,,,0.00,0744,Weather View 32 v70,2013-06-29 17:50:00,
2013-06-29 11:00:00,92.4,51.3,29.90,North,4,2.0,6.0,25,0.00,,,0.00,0757,Weather View 32 v70,2013-06-29 18:00:00,
2013-06-29 11:05:00,93.9,52.6,29.90,ESE,117,1.0,6.0,25,0.00,,,0.00,0767,Weather View 32 v70,2013-06-29 18:05:00,
2013-06-29 11:10:00,94.1,51.7,29.90,ENE,72,4.0,6.0,24,0.00,,,0.00,0772,Weather View 32 v70,2013-06-29 18:10:00,
2013-06-29 11:15:00,94.3,51.8,29.90,NE,49,3.0,6.0,24,0.00,,,0.00,0777,Weather View 32 v70,2013-06-29 18:15:00,
2013-06-29 11:25:00,94.1,50.5,29.90,North,4,6.0,8.0,23,0.00,,,0.00,0789,Weather View 32 v70,2013-06-29 18:25:00,
2013-06-29 11:30:00,94.3,51.8,29.89,North,4,6.0,8.0,24,0.00,,,0.00,0793,Weather View 32 v70,2013-06-29 18:30:00,
2013-06-29 11:35:00,94.5,52.0,29.89,ENE,72,2.0,8.0,24,0.00,,,0.00,0797,Weather View 32 v70,2013-06-29 18:35:00,
2013-06-29 11:40:00,94.7,52.2,29.89,ENE,72,2.0,8.0,24,0.00,,,0.00,0800,Weather View 32 v70,2013-06-29 18:40:00,
2013-06-29 11:45:00,94.9,52.3,29.89,NW,319,6.0,8.0,24,0.00,,,0.00,0806,Weather View 32 v70,2013-06-29 18:45:00,
2013-06-29 11:55:00,95.2,53.7,29.89,NNE,27,4.0,8.0,25,0.00,,,0.00,0814,Weather View 32 v70,2013-06-29 18:55:00,
2013-06-29 12:00:00,95.5,53.9,29.89,NNW,342,3.0,9.0,25,0.00,,,0.00,0818,Weather View 32 v70,2013-06-29 19:00:00,
2013-06-29 12:05:00,95.8,53.1,29.89,NW,319,4.0,11.0,24,0.00,,,0.00,0822,Weather View 32 v70,2013-06-29 19:05:00,
2013-06-29 12:10:00,96.5,54.8,29.89,NNE,27,5.0,11.0,25,0.00,,,0.00,0829,Weather View 32 v70,2013-06-29 19:10:00,
2013-06-29 12:15:00,96.6,53.7,29.89,NNE,27,4.0,11.0,24,0.00,,,0.00,0832,Weather View 32 v70,2013-06-29 19:15:00,
2013-06-29 12:25:00,96.4,53.6,29.88,North,4,6.0,14.0,24,0.00,,,0.00,0845,Weather View 32 v70,2013-06-29 19:25:00,
2013-06-29 12:30:00,96.3,53.5,29.88,WNW,297,5.0,14.0,24,0.00,,,0.00,0850,Weather View 32 v70,2013-06-29 19:30:00,
2013-06-29 12:35:00,96.4,53.6,29.88,NNE,27,6.0,14.0,24,0.00,,,0.00,0854,Weather View 32 v70,2013-06-29 19:35:00,
2013-06-29 12:40:00,97.0,52.9,29.88,NW,319,9.0,14.0,23,0.00,,,0.00,0861,Weather View 32 v70,2013-06-29 19:40:00,
2013-06-29 12:50:00,97.1,53.0,29.88,WNW,297,8.0,14.0,23,0.00,,,0.00,0870,Weather View 32 v70,2013-06-29 19:50:00,
2013-06-29 12:55:00,97.2,54.2,29.88,North,4,7.0,14.0,24,0.00,,,0.00,0877,Weather View 32 v70,2013-06-29 19:55:00,
2013-06-29 13:00:00,97.3,53.2,29.87,NW,319,9.0,14.0,23,0.00,,,0.00,0882,Weather View 32 v70,2013-06-29 20:00:00,
2013-06-29 13:10:00,97.6,52.2,29.87,North,4,13.0,14.0,22,0.00,,,0.00,0893,Weather View 32 v70,2013-06-29 20:10:00,
2013-06-29 13:20:00,97.8,51.1,29.87,WNW,297,9.0,15.0,21,0.00,,,0.00,0901,Weather View 32 v70,2013-06-29 20:20:00,
2013-06-29 13:25:00,98.6,50.4,29.87,NNW,342,5.0,15.0,20,0.00,,,0.00,0906,Weather View 32 v70,2013-06-29 20:25:00,
2013-06-29 13:30:00,98.4,50.3,29.87,NNW,342,3.0,15.0,20,0.00,,,0.00,0898,Weather View 32 v70,2013-06-29 20:30:00,
2013-06-29 13:35:00,98.5,51.7,29.87,North,4,4.0,15.0,21,0.00,,,0.00,0900,Weather View 32 v70,2013-06-29 20:35:00,
2013-06-29 13:40:00,98.7,50.5,29.87,WNW,297,3.0,15.0,20,0.00,,,0.00,0893,Weather View 32 v70,2013-06-29 20:40:00,
2013-06-29 13:50:00,98.5,51.7,29.87,WNW,297,6.0,15.0,21,0.00,,,0.00,0888,Weather View 32 v70,2013-06-29 20:50:00,
2013-06-29 13:55:00,98.9,52.0,29.86,NNW,342,6.0,15.0,21,0.00,,,0.00,0879,Weather View 32 v70,2013-06-29 20:55:00,
2013-06-29 14:00:00,98.5,52.9,29.86,NW,319,7.0,15.0,22,0.00,,,0.00,0878,Weather View 32 v70,2013-06-29 21:00:00,
2013-06-29 14:10:00,98.9,53.3,29.86,SSW,207,8.0,15.0,22,0.00,,,0.00,0864,Weather View 32 v70,2013-06-29 21:10:00,
2013-06-29 14:15:00,99.0,52.1,29.86,West,274,6.0,13.0,21,0.00,,,0.00,0858,Weather View 32 v70,2013-06-29 21:15:00,
2013-06-29 14:20:00,99.0,52.1,29.86,NW,319,7.0,15.0,21,0.00,,,0.00,0845,Weather View 32 v70,2013-06-29 21:20:00,
2013-06-29 14:25:00,99.1,52.2,29.86,WSW,252,10.0,15.0,21,0.00,,,0.00,0841,Weather View 32 v70,2013-06-29 21:25:00,
2013-06-29 14:30:00,98.6,51.8,29.85,SW,229,7.0,15.0,21,0.00,,,0.00,0836,Weather View 32 v70,2013-06-29 21:30:00,
2013-06-29 14:40:00,98.8,53.2,29.85,WSW,252,4.0,15.0,22,0.00,,,0.00,0816,Weather View 32 v70,2013-06-29 21:40:00,
2013-06-29 14:45:00,98.7,53.1,29.85,West,274,5.0,15.0,22,0.00,,,0.00,0806,Weather View 32 v70,2013-06-29 21:45:00,
2013-06-29 14:55:00,98.5,52.9,29.85,West,274,7.0,17.0,22,0.00,,,0.00,0786,Weather View 32 v70,2013-06-29 21:55:00,
2013-06-29 15:00:00,98.4,52.9,29.85,West,274,4.0,17.0,22,0.00,,,0.00,0778,Weather View 32 v70,2013-06-29 22:00:00,
2013-06-29 15:10:00,98.1,52.6,29.84,SW,229,6.0,17.0,22,0.00,,,0.00,0762,Weather View 32 v70,2013-06-29 22:10:00,
2013-06-29 15:15:00,98.3,54.0,29.84,West,274,7.0,17.0,23,0.00,,,0.00,0753,Weather View 32 v70,2013-06-29 22:15:00,
2013-06-29 15:20:00,99.0,54.6,29.84,WNW,297,7.0,17.0,23,0.00,,,0.00,0748,Weather View 32 v70,2013-06-29 22:20:00,
2013-06-29 15:25:00,98.9,54.5,29.84,West,274,6.0,17.0,23,0.00,,,0.00,0740,Weather View 32 v70,2013-06-29 22:25:00,
2013-06-29 15:30:00,98.6,54.2,29.84,SSW,207,6.0,17.0,23,0.00,,,0.00,0732,Weather View 32 v70,2013-06-29 22:30:00,
2013-06-29 15:35:00,98.6,54.2,29.84,WSW,252,9.0,17.0,23,0.00,,,0.00,0722,Weather View 32 v70,2013-06-29 22:35:00,
2013-06-29 15:45:00,98.8,54.4,29.84,WSW,252,8.0,17.0,23,0.00,,,0.00,0708,Weather View 32 v70,2013-06-29 22:45:00,
2013-06-29 15:50:00,99.0,54.6,29.83,WNW,297,7.0,17.0,23,0.00,,,0.00,0703,Weather View 32 v70,2013-06-29 22:50:00,
2013-06-29 15:55:00,98.9,54.5,29.83,NW,319,4.0,17.0,23,0.00,,,0.00,0693,Weather View 32 v70,2013-06-29 22:55:00,
2013-06-29 16:00:00,98.7,54.3,29.83,West,274,9.0,14.0,23,0.00,,,0.00,0687,Weather View 32 v70,2013-06-29 23:00:00,
2013-06-29 16:10:00,98.4,55.2,29.83,SW,229,6.0,14.0,24,0.00,,,0.00,0671,Weather View 32 v70,2013-06-29 23:10:00,
2013-06-29 16:15:00,98.2,55.1,29.83,WNW,297,6.0,14.0,24,0.00,,,0.00,0663,Weather View 32 v70,2013-06-29 23:15:00,
2013-06-29 16:20:00,98.2,55.1,29.83,WSW,252,9.0,14.0,24,0.00,,,0.00,0655,Weather View 32 v70,2013-06-29 23:20:00,
2013-06-29 16:25:00,97.8,54.7,29.83,WSW,252,14.0,14.0,24,0.00,,,0.00,0646,Weather View 32 v70,2013-06-29 23:25:00,
2013-06-29 16:35:00,97.6,54.6,29.83,West,274,7.0,17.0,24,0.00,,,0.00,0625,Weather View 32 v70,2013-06-29 23:35:00,
2013-06-29 16:40:00,97.3,54.3,29.82,SSW,207,8.0,17.0,24,0.00,,,0.00,0615,Weather View 32 v70,2013-06-29 23:40:00,
2013-06-29 16:45:00,96.8,53.9,29.82,West,274,11.0,17.0,24,0.00,,,0.00,0606,Weather View 32 v70,2013-06-29 23:45:00,
2013-06-29 16:50:00,97.2,55.4,29.82,West,274,7.0,17.0,25,0.00,,,0.00,0595,Weather View 32 v70,2013-06-29 23:50:00,
2013-06-29 17:00:00,96.4,54.7,29.82,SW,229,14.0,18.0,25,0.00,,,0.00,0568,Weather View 32 v70,2013-06-30 00:00:00,
2013-06-29 17:05:00,96.2,54.5,29.82,WSW,252,13.0,18.0,25,0.00,,,0.00,0554,Weather View 32 v70,2013-06-30 00:05:00,
2013-06-29 17:10:00,96.4,54.7,29.82,SW,229,9.0,18.0,25,0.00,,,0.00,0544,Weather View 32 v70,2013-06-30 00:10:00,
2013-06-29 17:15:00,95.7,54.1,29.81,SW,229,11.0,21.0,25,0.00,,,0.00,0529,Weather View 32 v70,2013-06-30 00:15:00,
2013-06-29 17:20:00,95.5,53.9,29.81,SSW,207,10.0,21.0,25,0.00,,,0.00,0517,Weather View 32 v70,2013-06-30 00:20:00,
2013-06-29 17:25:00,95.5,52.8,29.81,SW,229,14.0,21.0,24,0.00,,,0.00,0507,Weather View 32 v70,2013-06-30 00:25:00,
2013-06-29 17:35:00,95.3,52.7,29.81,SSW,207,14.0,21.0,24,0.00,,,0.00,0484,Weather View 32 v70,2013-06-30 00:35:00,
2013-06-29 17:40:00,95.6,52.9,29.81,West,274,6.0,21.0,24,0.00,,,0.00,0472,Weather View 32 v70,2013-06-30 00:40:00,
2013-06-29 17:45:00,95.4,51.6,29.80,SW,229,9.0,21.0,23,0.00,,,0.00,0461,Weather View 32 v70,2013-06-30 00:45:00,
2013-06-29 17:50:00,95.5,51.7,29.80,SW,229,13.0,21.0,23,0.00,,,0.00,0448,Weather View 32 v70,2013-06-30 00:50:00,
2013-06-29 17:55:00,95.5,51.7,29.81,SW,229,15.0,21.0,23,0.00,,,0.00,0435,Weather View 32 v70,2013-06-30 00:55:00,
2013-06-29 18:05:00,95.6,51.8,29.80,SW,229,12.0,21.0,23,0.00,,,0.00,0411,Weather View 32 v70,2013-06-30 01:05:00,
2013-06-29 18:10:00,95.6,51.8,29.80,SW,229,6.0,21.0,23,0.00,,,0.00,0398,Weather View 32 v70,2013-06-30 01:10:00,
2013-06-29 18:15:00,95.4,51.6,29.80,WSW,252,10.0,21.0,23,0.00,,,0.00,0385,Weather View 32 v70,2013-06-30 01:15:00,
2013-06-29 18:25:00,94.9,52.3,29.80,West,274,12.0,21.0,24,0.00,,,0.00,0361,Weather View 32 v70,2013-06-30 01:25:00,
2013-06-29 18:35:00,94.9,52.3,29.80,SSW,207,7.0,20.0,24,0.00,,,0.00,0336,Weather View 32 v70,2013-06-30 01:35:00,
2013-06-29 18:40:00,94.7,52.2,29.80,SSW,207,10.0,20.0,24,0.00,,,0.00,0323,Weather View 32 v70,2013-06-30 01:40:00,
2013-06-29 18:45:00,94.6,52.1,29.80,WSW,252,10.0,20.0,24,0.00,,,0.00,0311,Weather View 32 v70,2013-06-30 01:45:00,
2013-06-29 18:50:00,94.5,52.0,29.80,WSW,252,6.0,20.0,24,0.00,,,0.00,0297,Weather View 32 v70,2013-06-30 01:50:00,
2013-06-29 18:55:00,94.4,51.9,29.80,SW,229,7.0,20.0,24,0.00,,,0.00,0285,Weather View 32 v70,2013-06-30 01:55:00,
2013-06-29 19:05:00,94.4,53.0,29.80,WSW,252,7.0,19.0,25,0.00,,,0.00,0259,Weather View 32 v70,2013-06-30 02:05:00,
2013-06-29 19:10:00,94.2,52.9,29.80,SW,229,9.0,19.0,25,0.00,,,0.00,0247,Weather View 32 v70,2013-06-30 02:10:00,
2013-06-29 19:15:00,94.2,52.9,29.80,SE,139,6.0,19.0,25,0.00,,,0.00,0234,Weather View 32 v70,2013-06-30 02:15:00,
2013-06-29 19:20:00,94.2,53.9,29.80,West,274,4.0,19.0,26,0.00,,,0.00,0222,Weather View 32 v70,2013-06-30 02:20:00,
2013-06-29 19:25:00,94.1,53.8,29.81,SW,229,1.0,19.0,26,0.00,,,0.00,0209,Weather View 32 v70,2013-06-30 02:25:00,
2013-06-29 19:35:00,93.9,54.7,29.81,SSE,162,0.0,19.0,27,0.00,,,0.00,0182,Weather View 32 v70,2013-06-30 02:35:00,
2013-06-29 19:40:00,93.7,53.5,29.81,East,94,1.0,18.0,26,0.00,,,0.00,0152,Weather View 32 v70,2013-06-30 02:40:00,
2013-06-29 19:45:00,92.3,54.4,29.81,ESE,117,3.0,18.0,28,0.00,,,0.00,0019,Weather View 32 v70,2013-06-30 02:45:00,
2013-06-29 19:50:00,91.6,54.7,29.81,North,4,3.0,18.0,29,0.00,,,0.00,0017,Weather View 32 v70,2013-06-30 02:50:00,
2013-06-29 19:55:00,90.0,54.3,29.81,ESE,117,5.0,18.0,30,0.00,,,0.00,0016,Weather View 32 v70,2013-06-30 02:55:00,
2013-06-29 20:00:00,89.3,54.6,29.81,ESE,117,2.0,18.0,31,0.00,,,0.00,0015,Weather View 32 v70,2013-06-30 03:00:00,
2013-06-29 20:10:00,87.5,54.8,29.81,SSW,207,0.0,13.0,33,0.00,,,0.00,0013,Weather View 32 v70,2013-06-30 03:10:00,
2013-06-29 20:15:00,86.9,55.1,29.82,SE,139,0.0,11.0,34,0.00,,,0.00,0012,Weather View 32 v70,2013-06-30 03:15:00,
2013-06-29 20:20:00,86.1,55.2,29.82,South,184,0.0,11.0,35,0.00,,,0.00,0010,Weather View 32 v70,2013-06-30 03:20:00,
2013-06-29 20:25:00,85.3,54.5,29.82,SSW,207,0.0,5.0,35,0.00,,,0.00,0009,Weather View 32 v70,2013-06-30 03:25:00,
2013-06-29 20:30:00,84.5,54.5,29.82,SSW,207,1.0,5.0,36,0.00,,,0.00,0007,Weather View 32 v70,2013-06-30 03:30:00,
2013-06-29 20:35:00,84.0,54.8,29.82,South,184,0.0,5.0,37,0.00,,,0.00,0005,Weather View 32 v70,2013-06-30 03:35:00,
2013-06-29 20:45:00,82.4,54.2,29.82,SE,139,0.0,5.0,38,0.00,,,0.00,0003,Weather View 32 v70,2013-06-30 03:45:00,
2013-06-29 20:50:00,82.0,54.5,29.82,SSW,207,0.0,5.0,39,0.00,,,0.00,0002,Weather View 32 v70,2013-06-30 03:50:00,
2013-06-29 20:55:00,81.5,54.8,29.83,South,184,0.0,5.0,40,0.00,,,0.00,0002,Weather View 32 v70,2013-06-30 03:55:00,
2013-06-29 21:00:00,81.0,55.0,29.83,South,184,0.0,3.0,41,0.00,,,0.00,0002,Weather View 32 v70,2013-06-30 04:00:00,
2013-06-29 21:05:00,80.4,54.5,29.83,NNW,342,0.0,3.0,41,0.00,,,0.00,0002,Weather View 32 v70,2013-06-30 04:05:00,
2013-06-29 21:10:00,80.0,54.1,29.83,WSW,252,1.0,3.0,41,0.00,,,0.00,0001,Weather View 32 v70,2013-06-30 04:10:00,
2013-06-29 21:15:00,79.3,53.5,29.83,SSW,207,0.0,3.0,41,0.00,,,0.00,0001,Weather View 32 v70,2013-06-30 04:15:00,
2013-06-29 21:20:00,78.9,53.1,29.83,South,184,0.0,3.0,41,0.00,,,0.00,0001,Weather View 32 v70,2013-06-30 04:20:00,
2013-06-29 21:25:00,78.5,53.4,29.83,West,274,1.0,3.0,42,0.00,,,0.00,0001,Weather View 32 v70,2013-06-30 04:25:00,
2013-06-29 21:35:00,77.5,52.5,29.84,SSW,207,2.0,3.0,42,0.00,,,0.00,0001,Weather View 32 v70,2013-06-30 04:35:00,
2013-06-29 21:38:00,77.5,52.5,29.84,SSW,207,2.0,3.0,42,0.00,,,0.00,0001,Weather View 32 v70,2013-06-30 04:38:00,
2013-06-29 21:45:00,77.2,52.9,29.84,WNW,297,0.0,4.0,43,0.00,,,0.00,0002,Weather View 32 v70,2013-06-30 04:45:00,
2013-06-29 21:55:00,77.1,52.2,29.84,SW,229,0.0,4.0,42,0.00,,,0.00,0001,Weather View 32 v70,2013-06-30 04:55:00,
2013-06-29 22:00:00,77.0,52.1,29.84,WNW,297,0.0,4.0,42,0.00,,,0.00,0001,Weather View 32 v70,2013-06-30 05:00:00,
2013-06-29 22:05:00,76.8,51.2,29.84,WNW,297,0.0,4.0,41,0.00,,,0.00,0001,Weather View 32 v70,2013-06-30 05:05:00,
2013-06-29 22:10:00,76.6,51.1,29.84,WSW,252,0.0,4.0,41,0.00,,,0.00,0001,Weather View 32 v70,2013-06-30 05:10:00,
2013-06-29 22:15:00,76.5,51.0,29.84,WSW,252,0.0,4.0,41,0.00,,,0.00,0001,Weather View 32 v70,2013-06-30 05:15:00,
2013-06-29 22:25:00,76.0,50.5,29.84,East,94,0.0,4.0,41,0.00,,,0.00,0001,Weather View 32 v70,2013-06-30 05:25:00,
2013-06-29 22:30:00,75.7,50.3,29.84,SSW,207,0.0,4.0,41,0.00,,,0.00,0002,Weather View 32 v70,2013-06-30 05:30:00,
2013-06-29 22:35:00,75.3,50.6,29.84,SSW,207,0.0,4.0,42,0.00,,,0.00,0001,Weather View 32 v70,2013-06-30 05:35:00,
2013-06-29 22:40:00,75.2,51.1,29.84,South,184,0.0,3.0,43,0.00,,,0.00,0001,Weather View 32 v70,2013-06-30 05:40:00,
2013-06-29 22:45:00,74.9,51.5,29.85,SSE,162,0.0,3.0,44,0.00,,,0.00,0001,Weather View 32 v70,2013-06-30 05:45:00,
2013-06-29 22:50:00,74.6,51.2,29.85,SW,229,0.0,3.0,44,0.00,,,0.00,0001,Weather View 32 v70,2013-06-30 05:50:00,
2013-06-29 23:00:00,74.2,52.0,29.84,SW,229,0.0,3.0,46,0.00,,,0.00,0001,Weather View 32 v70,2013-06-30 06:00:00,
2013-06-29 23:05:00,74.0,51.8,29.84,ESE,117,0.0,3.0,46,0.00,,,0.00,0002,Weather View 32 v70,2013-06-30 06:05:00,
2013-06-29 23:10:00,73.9,52.3,29.84,WSW,252,0.0,2.0,47,0.00,,,0.00,0001,Weather View 32 v70,2013-06-30 06:10:00,
2013-06-29 23:15:00,73.8,52.2,29.84,SSE,162,0.0,0.0,47,0.00,,,0.00,0001,Weather View 32 v70,2013-06-30 06:15:00,
2013-06-29 23:20:00,73.6,52.6,29.84,WSW,252,0.0,0.0,48,0.00,,,0.00,0001,Weather View 32 v70,2013-06-30 06:20:00,
2013-06-29 23:30:00,73.1,52.7,29.84,SSW,207,0.0,0.0,49,0.00,,,0.00,0001,Weather View 32 v70,2013-06-30 06:30:00,
2013-06-29 23:35:00,73.1,52.7,29.85,SW,229,0.0,0.0,49,0.00,,,0.00,0002,Weather View 32 v70,2013-06-30 06:35:00,
2013-06-29 23:40:00,73.1,53.3,29.85,SSW,207,0.0,2.0,50,0.00,,,0.00,0002,Weather View 32 v70,2013-06-30 06:40:00,
2013-06-29 23:45:00,73.0,52.7,29.84,WNW,297,0.0,2.0,49,0.00,,,0.00,0002,Weather View 32 v70,2013-06-30 06:45:00,
2013-06-29 23:50:00,72.9,52.6,29.85,WSW,252,0.0,2.0,49,0.00,,,0.00,0001,Weather View 32 v70,2013-06-30 06:50:00,
2013-06-29 23:55:00,72.8,52.5,29.85,NE,49,0.0,2.0,49,0.00,,,0.00,0001,Weather View 32 v70,2013-06-30 06:55:00,